Location: Gu�tanj
(46.5431°N, 14.9692°E)
Time: 13:04:41
(UTC+00:00)

CZ-2D R/B - Pass Details

Date: 03 March 2021
Orbit: 521 x 536 km, 97.4° (Epoch: 14 April)

Event Time Altitude Azimuth Distance (km) Brightness Sun altitude
Rises 17:13:46 0° 170° (S) 2,638 6.7 -5.1°
Reaches altitude 10° 17:15:51 10° 172° (S) 1,756 5.9 -5.4°
Maximum altitude 17:19:38 74° 257° (WSW) 552 3.5 -6.1°
Drops below altitude 10° 17:23:28 10° 344° (NNW) 1,778 6.1 -6.7°
Sets 17:25:36 0° 346° (NNW) 2,675 7.0 -7.1°
